Location: ActonStarParty
(42.4766°N, 71.4538°W)
Time: 15:59:57
(UTC-04:00)

ATLAS 5 CENTAUR R/B - Visible Passes

Search period start: 21 August 2014 00:00
Search period end: 31 August 2014 00:00
Orbit: 325 x 15030 km, 60.8° (Epoch: 03 February)

Date Brightness Start Highest point End Pass type
(mag) Time Alt. Az. Time Alt. Az. Time Alt. Az.
21 Aug 9.5 01:45:11 10° E 02:32:27 18° ENE 03:01:56 10° NE visible
21 Aug 8.1 05:12:38 10° S 07:19:31 86° ESE 07:58:56 10° NE visible
22 Aug 8.5 04:06:27 10° SSE 06:05:46 70° ESE 06:49:04 10° NE visible
23 Aug 8.9 03:06:04 10° SSE 04:54:11 54° E 05:38:43 10° NE visible
24 Aug 9.1 02:13:36 10° SE 03:44:52 39° E 04:27:24 10° NE visible
25 Aug 9.3 01:32:13 10° ESE 02:37:50 25° E 03:13:54 10° NE visible
25 Aug 8.0 05:20:18 10° SSW 07:29:53 86° WNW 08:06:56 10° NE visible
26 Aug 9.4 01:08:33 10° E 01:33:06 13° ENE 01:51:45 10° NE visible
26 Aug 8.4 04:11:20 10° S 06:14:52 78° ESE 06:56:59 10° NE visible
27 Aug 8.8 03:07:38 10° SSE 05:01:58 62° ESE 05:46:42 10° NE visible
28 Aug 9.0 02:10:37 10° SE 03:51:20 46° E 04:35:43 10° NE visible
29 Aug 9.1 01:23:01 10° ESE 02:43:00 32° E 03:23:20 10° NE visible
29 Aug 7.9 05:28:29 10° SSW 07:39:54 78° NW 08:14:09 10° NE visible
30 Aug 9.2 00:48:39 10° E 01:36:59 19° ENE 02:07:08 10° NE visible
30 Aug 8.3 04:16:48 10° S 06:23:42 86° ESE 07:04:04 10° NE visible
